www.pogodaiklimat.ru

Погода и климат >> Архив погоды >> Катар >> Abu Samra


ПОГОДА в Abu Samra

  • Прогноз погоды в Abu Samra
  • Монитор погоды в Abu Samra
  • Климат города

АРХИВ ПОГОДЫ в Abu Samra

Время (UTC), дата Ветер
(напр.,м/с)
 
Видим.   Явления Облачность Т
(С)
Тd
(С)
f
(%)
Тe
(С)
Тes
(С)
Комфортность P
(гПа)
Po
(гПа)
Тmin
(С)
Tmax
(С)
R
(мм)
R24
(мм)
S
(см)
03 11.10 СВ 5 н/о н/о +26.1 +22.3 80 +34 +34 очень
душно
1010.6 1010.0
06 11.10 С 4 13 км н/о +32.1 +25.3 67 +46 +46 опасность
перегрева
1011.6 1011.0 +26.1
09 11.10 СЗ 8 13 км н/о +34.5 +26.2 62 +51 +51 опасность
перегрева
1009.9 1009.3
12 11.10 СЗ 10 12 км н/о +34.8 +26.5 62 +51 +51 опасность
перегрева
1008.5 1007.9
15 11.10 СЗ 7 13 км н/о +33.0 +27.4 73 +52 +52 опасность
перегрева
1009.4 1008.8
18 11.10 штиль 0 20 км н/о +31.0 +18.4 47 +36 +36 очень
душно
1010.5 1009.9 +35.3
21 11.10 СВ 4 18 км н/о +27.0 +19.4 63 +33 +33 очень
душно
1010.7 1010.1
00 12.10 СВ 5 11 км н/о +25.5 +20.5 74 +32 +32 очень
душно
1010.2 1009.6
03 12.10 СВ 6 12 км н/о +26.6 +22.5 78 +35 +35 очень
душно
1011.4 1010.8
06 12.10 В 8 20 км н/о +34.5 +21.1 46 +42 +42 опасность
перегрева
1012.4 1011.8 +25.4
09 12.10 СВ 4 20 км н/о +39.0 +10.6 18 +38 +38 очень
жарко
1010.4 1009.8
12 12.10 В 12 20 км н/о +38.7 +13.9 23 +39 +39 душно 1009.3 1008.7
15 12.10 В 5 20 км н/о +34.5 +10.7 23 +34 +34 очень
жарко
1010.2 1009.6
18 12.10 СВ 2 20 км н/о +29.8 +19.4 54 +36 +36 очень
душно
1011.7 1011.1 +40.1
21 12.10 штиль 0 20 км н/о +27.8 +19.2 60 +33 +33 очень
душно
1011.7 1011.1
00 13.10 СВ 2 20 км н/о +25.8 +20.3 72 +32 +32 очень
душно
1011.5 1010.9
03 13.10 СВ 2 18 км н/о +25.7 +20.7 74 +32 +32 очень
душно
1012.4 1011.8
06 13.10 С 3 17 км н/о +32.0 +22.6 58 +42 +42 опасность
перегрева
1014.0 1013.4 +23.0
09 13.10 В 10 20 км н/о +39.1 +7.8 15 +37 +37 очень
жарко
1012.2 1011.6
12 13.10 СВ 12 20 км н/о +38.4 +10.1 18 +37 +37 очень
жарко
1011.0 1010.4
15 13.10 СВ 8 20 км н/о +33.2 +9.2 23 +32 +32 жарко 1011.9 1011.3
18 13.10 СВ 9 20 км н/о +28.1 +15.4 46 +31 +31 душно 1013.3 1012.7 +39.8
21 13.10 ЮЗ 2 20 км н/о +27.0 +18.3 59 +32 +32 очень
душно
1013.1 1012.5
00 14.10 З 1 20 км н/о +25.4 +18.3 65 +30 +30 душно 1012.9 1012.3
03 14.10 Ю 1 19 км н/о +22.8 +17.2 71 +28 +28 душно 1013.9 1013.3
06 14.10 ЮВ 6 20 км н/о +32.6 +19.5 46 +38 +38 очень
душно
1015.3 1014.7 +21.5
09 14.10 ЮЗ 2 20 км н/о +37.0 +11.1 21 +36 +36 очень
жарко
1013.3 1012.7
12 14.10 СЗ 5 20 км н/о +35.9 +17.4 34 +39 +39 очень
душно
1011.4 1010.8
15 14.10 В 6 20 км н/о +32.5 +14.8 34 +34 +34 очень
жарко
1012.1 1011.5
18 14.10 В 4 20 км н/о +27.0 +16.2 52 +30 +30 душно 1013.5 1012.9 +37.8
21 14.10 Ю 1 20 км н/о +25.6 +17.4 61 +30 +30 душно 1013.3 1012.7
00 15.10 ЮЗ 4 20 км н/о +24.5 +17.9 67 +29 +29 душно 1013.3 1012.7
03 15.10 Ю 3 19 км н/о +23.1 +17.3 70 +28 +28 душно 1014.4 1013.8
06 15.10 ЮЗ 8 20 км н/о +32.6 +16.0 37 +35 +35 душно 1015.5 1014.9 +22.6
09 15.10 ЮЗ 7 20 км н/о +36.4 +13.6 26 +37 +37 очень
жарко
1013.6 1013.0
12 15.10 С 5 20 км н/о +35.7 +16.7 32 +38 +38 очень
душно
1012.2 1011.6
15 15.10 С 6 20 км н/о +32.9 +20.8 49 +40 +40 очень
душно
1013.3 1012.7
18 15.10 СВ 6 6000 м н/о +28.7 +14.6 42 +31 +31 жарко 1014.6 1014.0 +37.2
21 15.10 ЮЗ 3 4000 м н/о +27.1 +12.8 41 +29 +29 жарко 1013.7 1013.1
00 16.10 Ю 6 н/о н/о +24.5 +12.4 47 +26 +26 жарко 1013.4 1012.8
03 16.10 Ю 4 6000 м н/о +22.6 +12.6 53 +25 +25 комфорт 1014.3 1013.7
06 16.10 З 7 15 км н/о +32.4 +14.6 34 +34 +34 очень
жарко
1015.1 1014.5 +22.4
09 16.10 С 6 20 км н/о +34.5 +18.8 40 +39 +39 очень
душно
1013.3 1012.7
12 16.10 СЗ 12 17 км н/о +34.1 +20.4 45 +41 +41 опасность
перегрева
1011.8 1011.2
15 16.10 С 11 9000 м н/о +33.1 +19.7 45 +39 +39 очень
душно
1012.4 1011.8
18 16.10 ЮВ 2 13 км н/о +29.8 +18.5 51 +35 +35 очень
душно
1013.7 1013.1 +35.5
21 16.10 В 1 11 км н/о +27.9 +20.4 64 +35 +35 очень
душно
1013.2 1012.6
00 17.10 ЮЗ 4 10 км н/о +26.0 +19.3 67 +31 +31 очень
душно
1012.7 1012.1
03 17.10 ЮВ 4 8000 м н/о +23.6 +18.3 72 +28 +28 душно 1013.9 1013.3
06 17.10 Ю 1 12 км н/о +31.1 +20.6 54 +38 +38 очень
душно
1014.7 1014.1 +23.5
09 17.10 СЗ 7 11 км н/о +32.3 +21.4 53 +40 +40 очень
душно
1012.6 1012.0
15 17.10 В 10 14 км н/о +31.7 +20.4 51 +38 +38 очень
душно
1010.6 1010.0
21 17.10 СВ 4 7000 м н/о +26.6 +21.5 74 +34 +34 очень
душно
1012.0 1011.4

 

Местоположение метеостанции Abu Samra (Катар): широта 24.75 долгота 50.82 высота над уровнем моря 8 м.

В архиве по умолчанию представлена погода в Abu Samra за последнюю неделю. Архивные данные за месяц целиком и за предыдущие месяцы, начиная с января 2011 года, Вы можете получить, выбрав интересующий диапазон дат из раскрывающегося списка и нажав кнопку "Ввод!".


*Определитесь, кто Вы:
робот инопланетянин человек

Внимание! Время в таблицах - всемирное. Для получения местного времени необходимо прибавить поправку, которая в Abu Samra равна 4 ч.

Смотрите также архив погоды в соседних городах и на ближайших метеорологических станциях:

Погода в Dukhan (Катар) (73 км)
Погода в Doha (Катар) (94 км)
Погода в Hamad Int Airport (Катар) (98 км)
Погода в Al Ahsa (Саудовская Аравия) (148 км)
Погода в Bahrain (Бахрейн) (170 км)
Погода в Dhahran (Саудовская Аравия) (181 км)
Погода в King Fahd Int Airport (Саудовская Аравия) (214 км)
Погода в Bandar Deyr (Иран) (360 км)
Погода в Abu Dhabi Bateen Airport (ОАЭ) (370 км)
Погода в Kish Island (Иран) (372 км)

Пояснения к столбцам:

Ветер - указаны скорость ветра в м/с - средняя за 10 мин, порывы в срок и между сроками (в фигурных скобках) и направление, откуда дует ветер: С - северный, СВ - северо-восточный, В - восточный, ЮВ - юго-восточный, Ю - южный, ЮЗ - юго-западный, З - западный, СЗ - северо-западный.
Видимость - горизонтальная дальность видимости в метрах или километрах. При видимости от 1 до 10 км при отсутствии осадков обычно наблюдается дымка, при ухудшении видимости до 1 км и менее - туман. В сухую погоду видимость может ухудшаться дымом, пылью или мглою.
Явления - указаны атмосферные явления, наблюдавшиеся в срок или в последний час перед сроком; фигурными скобками обозначены явления, наблюдавшиеся между сроками (за 1-3 часа до срока); квадратными скобками обозначены град или гололедные отложения с указанием их диаметра в мм.
Облачность - указаны через наклонную черту общая и нижняя облачность в баллах и высота нижней границы облаков в метрах; квадратными скобками обозначены формы облаков: Ci - перистые, Cs - перисто-слоистые, Cc - перисто-кучевые, Ac - высококучевые, As - высокослоистые, Sc - слоисто-кучевые, Ns - слоисто-дождевые, Cu - кучевые, Cb - кучево-дождевые. Подробнее классификацию облаков см. в Атласе облаков (PDF).
T - Температура воздуха - температура, измеренная на высоте 2 м над землей.
Td - Температура точки росы - температура, при понижении до которой содержащийся в воздухе водяной пар достигнет насыщения.
f - Относительная влажность воздуха - влажноcть воздуха, измеренная на высоте 2 м над землей.
Te - Эффективная температура - температура, которую ощущает одетый по сезону человек в тени. Характеристика душности погоды. При расчете учитывается влияние влажности воздуха и скорости ветра на теплоощущения человека.
Tes - Эффективная температура на солнце - температура, которую ощущает человек, с поправкой на солнечный нагрев. Характеристика знойности погоды. Зависит от высоты солнца над горизонтом, облачности и скорости ветра. Ночью, в пасмурную погоду, а также при ветре 12 м/с и более поправка равна нулю.
P - Атмосферное давление - приведенное к уровню моря атмосферное давление.
Po - Атмосферное давление - измеренное на уровне метеостанции атмосферное давление.
Tmin - Минимальная температура - минимум температуры воздуха на высоте 2 м над землей.
Tmax - Максимальная температура - максимум температуры воздуха на высоте 2 м над землей.
R - Количество осадков - Количество выпавших осадков за период времени, мм. При наведении курсора мыши на число - период времени, за который выпало указанное количество осадков.
R24 - Количество осадков - Количество выпавших осадков за 24 часа, мм.
S - Снежный покров - Высота снежного покрова, см. При наведении курсора мыши на число - состояние снежного покрова и степень покрытия местности в баллах.